Theta_e
306 307 306 304 304 304 304 304 306 305 305 302 299 297 297 296 296 295 295 294 294 294 294 294 293 293 294 294 294 294 295 295 296 296 295 296 298 298 298 297 297 297 297 297
306 307 306 305 304 303 304 307 304 304 304 304 298 297 297 296 295 295 294 294 293 294 294 294 293 293 293 293 293 294 294 295 295 295 295 295 296 296 296 296 296 296 297 297
307 306 305 303 304 304 303 305 303 303 303 302 298 298 297 297 295 294 293 293 294 294 295 295 294 294 294 294 293 293 294 294 295 295 295 294 295 295 296 296 296 296 296 297
307 304 304 303 304 303 303 303 302 302 303 303 302 307 299 296 295 294 293 294 294 295 295 295 294 294 294 294 293 293 293 293 294 295 295 294 294 294 295 295 295 295 295 295
307 305 304 304 304 302 303 302 301 302 303 303 301 303 297 296 294 294 293 294 294 294 295 295 295 295 295 294 294 294 294 293 293 295 295 294 294 294 294 294 294 295 295 295
303 303 303 304 302 302 301 300 301 301 302 305 299 299 296 293 293 293 293 294 295 295 295 295 295 295 295 295 294 294 294 294 293 294 294 294 294 294 294 294 294 294 294 295
300 301 301 301 302 301 300 299 304 305 304 303 298 298 297 293 292 293 293 294 295 295 295 295 295 295 295 295 294 294 294 294 294 294 294 294 294 294 294 294 294 294 294 295
298 303 299 298 300 301 299 298 301 304 300 299 298 301 300 293 292 293 293 294 295 295 295 295 295 295 294 294 294 294 294 294 294 294 294 294 294 294 294 294 294 294 294 294
297 298 299 297 296 296 297 297 297 298 295 296 296 296 296 292 293 293 294 294 295 295 295 295 294 294 294 294 294 294 294 294 294 294 294 294 294 294 294 294 294 294 294 294
297 299 297 298 297 296 296 295 294 295 296 296 295 295 296 292 292 293 294 294 295 295 295 295 294 294 293 293 293 293 294 294 294 294 295 295 295 294 294 295 294 294 294 294
296 295 296 296 296 295 295 294 293 294 296 296 296 294 292 292 292 293 294 294 295 295 294 294 293 293 293 293 293 294 294 294 295 295 295 295 295 295 295 295 295 295 295 295
297 294 295 296 293 292 292 293 292 294 293 292 292 294 291 293 293 293 294 294 294 294 294 293 293 292 293 293 294 294 294 295 295 295 295 295 295 295 295 295 296 296 296 296
298 294 295 296 295 293 293 291 291 290 289 292 293 292 293 293 293 294 294 294 294 294 293 293 292 292 293 294 294 294 295 295 295 295 295 295 295 296 296 296 296 297 297 297
297 294 293 296 294 294 293 293 290 290 292 290 292 292 293 293 294 293 294 294 294 293 293 293 293 293 293 294 294 294 294 294 294 294 294 295 295 295 296 297 297 297 298 298
292 295 295 293 291 292 292 293 292 289 291 292 292 293 293 293 293 293 294 293 293 293 292 292 293 293 293 294 294 294 294 293 293 293 294 295 295 296 297 297 297 297 297 297
291 293 292 293 291 291 293 292 292 293 293 292 292 292 292 293 293 294 294 293 293 292 292 292 293 293 293 294 294 293 293 293 293 294 295 297 299 300 299 299 299 298 298 297
291 292 290 290 289 291 292 292 292 292 292 292 292 293 293 293 294 294 293 293 292 292 292 292 293 293 294 293 293 293 293 293 294 296 299 299 299 299 298 297 298 301 305 300
291 291 288 290 288 292 290 290 291 291 292 292 293 293 292 293 293 293 293 292 292 292 292 292 292 293 293 293 293 293 293 294 295 298 298 299 299 298 297 298 300 301 302 302
288 289 285 291 290 289 291 291 292 292 292 292 292 292 292 293 293 293 292 292 292 291 291 292 292 293 293 293 293 293 293 294 297 297 297 298 297 298 298 299 299 300 300 300
288 286 290 285 288 290 291 290 290 290 290 292 292 292 292 293 293 293 292 291 291 291 291 292 293 292 292 292 292 293 294 295 297 298 297 297 297 297 297 297 298 299 299 300
287 284 287 291 288 289 288 289 290 290 291 292 291 292 292 293 293 292 292 291 291 291 291 292 292 292 292 292 292 293 294 295 298 298 298 297 297 297 296 296 295 295 295 295
290 288 288 283 286 289 288 291 292 291 291 291 291 292 292 292 292 292 291 291 291 291 292 292 292 292 292 292 292 292 294 296 299 297 297 297 297 297 296 296 295 294 294 293
290 290 290 289 289 287 288 291 290 290 290 290 291 292 291 292 292 291 291 291 291 291 292 292 291 291 291 292 292 292 295 297 298 297 297 296 296 295 295 295 294 294 293 293
287 285 289 289 287 287 288 288 289 290 290 290 290 291 291 292 291 291 291 291 291 291 291 291 291 291 291 291 292 293 295 298 297 296 296 295 295 295 295 294 294 293 293 292
287 286 287 288 288 289 290 290 289 289 290 290 291 291 291 291 291 291 291 290 290 291 290 291 290 291 291 291 292 293 295 298 296 295 295 294 294 293 293 294 293 293 293 292
285 287 289 289 288 290 289 288 289 289 290 290 290 291 291 290 290 290 290 290 290 290 290 290 290 290 290 291 292 293 296 297 296 294 293 293 293 292 292 291 292 292 293 292
Wind_Speed
7 11 5 4 4 3 3 2 3 1 4 6 10 11 9 10 16 18 20 20 20 21 29 30 31 32 32 30 31 33 32 32 29 28 25 25 23 28 28 26 26 24 22 23
6 6 5 3 7 3 1 1 3 3 3 4 10 10 8 11 13 14 18 20 20 22 25 31 32 31 30 29 30 32 32 33 31 28 29 21 21 24 26 28 29 30 27 24
7 4 4 3 5 11 3 2 5 9 3 4 13 5 1 5 11 17 17 16 19 20 23 28 35 35 34 34 33 33 33 33 31 29 29 29 25 21 22 24 24 28 25 26
7 4 5 6 6 6 5 2 10 10 3 1 3 2 4 9 13 19 20 21 22 24 25 31 32 34 34 34 33 33 34 34 33 32 27 28 26 25 27 26 25 27 27 29
0 6 9 7 4 4 6 17 6 1 3 3 3 3 5 5 19 22 22 21 22 22 22 25 31 33 36 36 36 34 34 34 33 31 32 31 30 29 29 29 28 29 30 31
3 3 4 3 3 1 14 5 2 1 1 2 4 4 4 8 16 20 19 23 23 23 25 34 38 37 37 38 38 39 40 39 38 34 35 32 32 34 32 32 30 29 27 26
5 3 5 4 5 4 11 7 4 3 4 4 4 3 2 8 15 16 18 23 24 22 22 25 33 39 42 43 42 41 39 42 40 40 39 37 35 35 34 34 31 31 29 26
5 4 7 10 4 3 5 5 3 5 6 8 8 2 2 8 16 23 22 22 23 24 22 25 34 37 40 44 45 44 42 42 41 40 40 39 37 36 35 34 34 33 32 32
4 2 1 6 7 4 5 7 2 4 2 3 5 1 4 14 26 25 27 28 28 28 27 27 39 39 41 42 44 43 44 43 43 42 39 39 38 34 36 34 35 34 34 33
1 3 2 3 3 9 8 3 3 5 7 7 3 5 6 19 25 25 28 30 29 28 28 30 39 42 44 44 43 43 42 43 42 41 40 38 38 36 35 37 35 33 33 31
1 2 1 3 7 3 5 4 5 3 1 3 5 6 2 16 21 21 26 28 27 28 28 27 40 44 44 44 43 43 43 41 41 40 40 38 37 37 36 33 33 31 32 29
3 3 3 2 1 6 4 3 2 3 3 1 0 6 3 20 20 19 26 26 28 28 28 35 40 42 43 43 44 43 43 43 41 41 39 38 38 37 34 33 34 30 31 29
0 2 1 3 2 3 5 3 4 4 2 1 1 8 17 21 20 26 27 28 28 28 30 31 39 39 42 45 47 47 45 44 44 42 39 37 35 34 32 32 32 31 30 29
2 3 2 2 1 1 1 3 3 3 1 2 8 19 24 24 26 29 28 29 28 28 29 29 32 39 44 47 46 47 47 46 44 43 40 37 35 33 31 31 31 30 29 28
3 3 1 3 4 1 1 2 2 2 2 2 14 18 20 19 24 26 26 28 28 29 31 30 29 38 44 46 47 48 48 47 45 42 39 38 37 34 30 30 29 28 28 27
2 2 2 3 3 2 2 2 3 1 2 8 12 18 8 22 20 23 27 27 26 29 30 31 34 41 44 46 47 48 48 47 45 41 38 37 32 27 25 27 28 28 27 25
3 2 3 1 2 2 2 2 4 4 4 9 7 9 22 27 25 24 26 23 28 29 30 31 33 40 44 47 47 46 47 46 43 40 35 32 30 29 29 31 34 33 26 11
4 3 2 1 0 3 1 2 4 8 11 5 6 16 17 22 23 23 15 22 27 28 29 33 41 44 48 48 49 49 46 43 41 35 31 31 32 31 34 36 36 37 39 27
4 4 3 2 1 1 1 1 3 2 7 3 12 20 18 21 20 18 21 29 26 32 38 40 43 45 48 47 49 47 45 42 36 37 33 33 32 33 33 35 33 35 37 38
5 6 3 2 2 1 2 3 2 4 3 3 13 18 21 19 17 16 29 37 37 39 39 43 44 45 45 48 47 44 42 41 38 36 33 32 33 34 34 33 34 34 37 37
2 3 3 1 1 4 4 5 1 3 4 14 12 16 16 13 12 22 35 35 37 37 40 43 41 43 44 45 45 42 40 39 39 38 35 33 34 33 33 34 36 34 36 36
3 4 2 3 2 3 4 1 2 3 5 8 12 14 14 18 20 21 29 32 37 38 43 41 39 43 45 45 43 41 39 41 36 36 35 36 34 33 34 32 32 35 35 35
1 4 3 6 3 0 2 4 3 3 6 6 11 15 14 17 19 20 21 32 34 35 38 38 39 41 43 45 43 38 42 39 34 34 33 34 38 37 37 36 34 32 32 31
2 2 2 2 1 4 3 3 2 3 8 12 16 17 17 15 18 20 27 30 31 33 35 37 39 38 40 44 43 39 40 35 31 31 31 30 35 39 40 38 38 36 31 29
2 4 4 2 4 3 1 1 3 6 12 14 17 14 16 19 20 22 26 29 30 32 34 35 36 36 39 42 41 41 41 32 27 27 27 28 28 28 32 39 36 34 38 33
5 6 4 3 5 3 4 3 7 4 7 16 14 18 23 19 22 27 26 28 28 32 33 34 36 36 39 39 39 39 40 29 25 23 23 23 22 23 22 24 30 39 39 39
Wind_Direction
18 59 47 28 355 299 256 239 296 24 34 74 99 108 75 54 41 27 17 8 358 351 342 338 336 335 333 332 330 328 326 326 328 327 331 331 316 308 302 299 298 294 296 295
41 57 335 271 348 337 260 240 350 313 46 69 127 107 85 52 40 23 10 359 347 344 340 340 336 334 331 325 325 323 320 319 321 320 320 311 306 304 299 299 299 295 290 287
83 333 315 7 10 11 8 53 344 300 328 57 128 165 338 4 14 13 8 353 352 344 341 340 338 336 332 329 325 322 316 314 313 312 311 313 309 304 294 292 292 295 291 288
71 344 13 21 49 17 331 313 315 294 220 214 185 297 38 353 360 0 359 355 348 348 339 334 329 326 326 321 318 317 313 311 310 308 307 303 299 294 292 290 288 288 297 295
329 20 15 21 341 360 274 313 301 263 188 136 163 278 11 340 358 352 353 348 340 333 331 327 327 325 324 324 320 318 314 309 306 302 300 298 297 294 295 294 294 297 295 298
52 11 61 285 304 30 306 332 79 78 163 163 123 4 58 21 346 339 345 346 340 336 333 330 327 325 324 322 319 318 314 311 310 305 302 296 290 290 292 290 288 287 285 286
348 34 330 24 349 10 15 353 338 331 346 358 13 346 118 18 353 338 335 342 340 333 328 325 324 323 322 321 319 314 312 307 307 305 302 298 292 287 283 282 282 283 283 279
29 322 15 339 52 310 22 29 51 312 312 318 345 321 70 21 337 355 343 335 333 333 331 325 322 320 318 317 316 317 313 309 310 306 301 298 293 288 284 280 277 273 274 276
12 273 184 58 36 352 353 35 348 280 8 304 324 6 118 348 358 346 338 337 337 333 329 325 324 322 320 319 319 319 316 314 312 309 305 302 297 289 288 281 280 275 272 271
178 323 48 6 15 27 72 336 4 24 347 315 357 294 333 354 350 340 338 332 329 327 327 325 325 324 322 322 322 320 317 312 310 308 307 302 297 293 290 288 281 278 274 272
60 88 29 53 23 354 6 32 42 116 58 291 315 320 163 345 345 329 328 326 325 325 325 324 322 323 324 324 325 320 318 315 311 308 305 301 296 293 290 287 285 280 278 274
8 121 47 100 83 67 69 84 72 96 305 62 222 277 272 342 329 327 325 324 325 325 324 323 324 326 327 327 324 323 321 318 314 310 305 300 297 293 289 285 283 278 276 272
130 37 5 172 258 38 56 50 87 93 86 245 317 292 328 325 330 331 328 326 323 324 324 325 328 329 330 329 327 326 322 320 317 314 309 305 300 297 290 287 282 280 274 267
86 81 111 205 90 185 19 80 75 83 72 269 265 301 318 328 333 327 327 322 322 325 327 328 329 329 330 328 327 324 323 322 319 316 313 309 305 301 298 294 288 284 277 270
71 101 44 75 69 121 127 91 72 136 222 223 309 306 309 323 323 320 320 321 325 327 329 329 329 331 329 329 328 326 326 325 324 321 318 316 312 308 303 299 298 292 282 271
352 139 102 70 351 188 126 338 3 199 254 274 296 301 315 316 320 326 325 323 324 329 328 328 330 329 330 329 328 327 329 329 329 328 325 321 329 331 330 323 320 307 283 264
63 96 51 10 3 103 58 237 312 309 279 292 303 321 317 325 332 327 316 320 329 329 329 329 331 331 329 328 329 331 332 331 333 333 352 359 0 3 3 353 344 348 13 242
112 86 58 230 307 26 172 249 251 285 289 289 311 319 322 314 314 311 315 331 329 330 329 330 331 332 333 331 333 334 336 338 339 350 0 359 9 8 8 7 16 27 41 50
43 111 74 81 261 345 316 315 307 336 305 210 332 323 326 322 316 325 340 335 329 329 329 329 331 332 333 335 336 337 341 346 357 4 5 13 14 9 12 17 26 41 46 45
65 63 107 91 68 263 208 266 166 145 283 198 334 324 324 333 338 324 330 326 327 330 335 333 335 335 337 337 339 342 347 353 1 3 9 16 21 21 23 23 30 38 50 53
20 14 98 113 235 285 245 281 300 48 296 320 326 315 319 320 306 302 317 324 330 330 335 338 340 339 338 341 344 347 351 358 1 9 19 23 28 26 28 34 36 41 45 46
182 133 158 100 58 331 188 325 98 238 286 291 315 309 312 305 313 319 323 326 332 335 339 343 343 340 341 345 349 349 353 351 8 15 22 28 30 33 32 37 39 43 46 46
287 190 180 176 213 262 232 217 245 260 279 299 309 310 310 314 319 323 325 329 331 338 340 343 344 341 343 347 350 349 350 355 10 18 23 28 34 37 38 40 40 41 44 48
231 165 159 66 162 235 246 268 237 303 299 302 304 304 311 317 324 321 326 328 332 340 345 343 345 345 343 346 348 351 354 2 15 19 24 31 39 41 42 42 43 42 41 46
188 129 165 273 275 287 112 185 314 305 311 310 318 311 316 321 322 324 325 327 331 339 345 346 346 345 344 344 346 353 359 9 19 21 25 32 37 43 47 51 50 52 53 54
190 172 163 203 206 163 259 289 324 305 321 321 320 324 327 330 320 325 324 328 333 341 345 346 346 347 344 344 346 353 5 10 18 24 22 28 34 41 48 52 55 57 60 61